Location: Bothwell
(42.3833°S, 147.0000°E)
Time: 19:30:52
(UTC+11:00)

MOZHAYETS 4 - Pass Details

Date: 02 October 2022
Orbit: 659 x 678 km, 98.2° (Epoch: 25 November)

Event Time Altitude Azimuth Distance (km) Brightness Sun altitude
Rises 03:35:05 0° 153° (SSE) 3,041 12.1 -32.6°
Reaches altitude 10° 03:37:48 10° 137° (SE) 2,122 11.1 -32.2°
Maximum altitude 03:41:22 22° 86° (E) 1,480 9.8 -31.7°
Enters shadow 03:42:08 21° 72° (ENE) 1,514 9.8 -31.6°
